This is the latest recevied weather packets stored in our database for station/object SQ3RAX-13. If no packets are shown the sender has not sent any weather packets the latest 10 day(s).
| Time | Temp. | Humidity | Pressure | Rain* | Wind** | Luminosity | Snow |
|---|---|---|---|---|---|---|---|
| 1778016368 | 13.89° C | 83% | 1007 hPa | 0 mm | - | - | - |
| 1778015768 | 14.44° C | 83% | 1007 hPa | 0 mm | - | - | - |
| 1778015168 | 14.44° C | 83% | 1007 hPa | 0 mm | - | - | - |
| 1778014568 | 14.44° C | 83% | 1007 hPa | 0 mm | - | - | - |
| 1778013968 | 14.44° C | 83% | 1007 hPa | 0 mm | - | - | - |
| 1778013368 | 14.44° C | 83% | 1007 hPa | 0 mm | - | - | - |
| 1778012768 | 14.44° C | 82% | 1007 hPa | 0 mm | - | - | - |
| 1778012168 | 14.44° C | 82% | 1007 hPa | 0 mm | - | - | - |
| 1778011568 | 15° C | 82% | 1007 hPa | 0 mm | - | - | - |
| 1778010968 | 15° C | 82% | 1007 hPa | 0 mm | - | - | - |
| 1778010368 | 15° C | 81% | 1007 hPa | 0 mm | - | - | - |
| 1778009768 | 15° C | 81% | 1007 hPa | 0 mm | - | - | - |
| 1778009168 | 15° C | 79% | 1007 hPa | 0 mm | - | - | - |
| 1778008568 | 16.67° C | 81% | 1007 hPa | 0 mm | - | - | - |
| 1778007968 | 16.67° C | 81% | 1007 hPa | 0 mm | - | - | - |
| 1778007368 | 16.67° C | 81% | 1007 hPa | 0 mm | - | - | - |
| 1778006768 | 16.67° C | 81% | 1007 hPa | 0 mm | - | - | - |
| 1778006168 | 16.67° C | 81% | 1007 hPa | 0 mm | - | - | - |
| 1778005568 | 17.22° C | 75% | 1007 hPa | 0 mm | - | - | - |
| 1778004968 | 17.22° C | 74% | 1007 hPa | 0 mm | - | - | - |
| 1778004368 | 17.22° C | 74% | 1007 hPa | 0 mm | - | - | - |
| 1778003768 | 17.78° C | 79% | 1007 hPa | 0 mm | - | - | - |
| 1778003168 | 17.78° C | 79% | 1007 hPa | 0 mm | - | - | - |
| 1778002568 | 17.78° C | 79% | 1007 hPa | 0 mm | - | - | - |
| 1778001968 | 18.33° C | 72% | 1007 hPa | 0 mm | - | - | - |
* Rain latest hour (hover to see other rain measurements)
** Current wind speed in m/s (hover to see current wind gust speed)